contact:dominique.lefevre@mio.osupytheas.fr, maurice.libes@osupytheas.fr, didier.mallarino@osupytheas.fr
Project:EMSO http://www.emso-fr.org/EMSO-France
Depth: 2436.0 m
Title:EMSO Ligure Ouest : Data MII capteur AQUADOPP
Date,Latitude,Longitude,X_East,Y_North,Z_Up,Amplitude_X,Amplitude_Y,Amplitude_Z,Batterie,SoundSpeed,Heading,Pitch,Roll,Pressure,TIS,Speed,Direction
, degrees North, degrees East, m.s-1, m.s-1,m.s-1, 1, 1, 1, Volt, m.s-1, degree, degree, degree, dbar, degree_C, m.s-1, degree
2020-02-24T00:04:03,42.805,6.029,-0.099,-0.022,-0.038,109.0,108.0,105.0,13.3,1505.2,324.1,-0.7,1.8,2470.147,13.3,0.101,257.5
2020-02-24T00:07:03,42.805,6.029,-0.11,-0.008,-0.032,110.0,108.0,105.0,13.4,1505.3,323.1,-0.7,1.9,2470.172,13.31,0.11,265.8
2020-02-24T00:10:03,42.805,6.029,-0.099,-0.001,-0.035,109.0,108.0,105.0,13.4,1505.3,327.1,-0.8,1.8,2470.156,13.31,0.099,269.4
2020-02-24T00:13:03,42.805,6.029,-0.071,-0.006,-0.052,109.0,108.0,106.0,13.3,1505.3,326.2,-0.7,1.8,2470.104,13.32,0.071,265.2
2020-02-24T00:16:03,42.805,6.029,-0.085,-0.002,-0.032,109.0,108.0,106.0,13.3,1505.3,325.9,-0.7,1.8,2470.096,13.32,0.085,268.7
2020-02-24T00:19:03,42.805,6.029,-0.113,-0.001,-0.024,108.0,108.0,105.0,13.4,1505.3,328.5,-0.7,1.9,2470.151,13.32,0.113,269.5
2020-02-24T00:22:03,42.805,6.029,-0.078,-0.01,-0.007,108.0,107.0,106.0,13.3,1505.3,322.8,-0.7,1.8,2470.117,13.32,0.078,262.7
2020-02-24T00:25:03,42.805,6.029,-0.078,-0.016,-0.017,109.0,108.0,106.0,13.4,1505.3,325.2,-0.7,1.8,2470.124,13.32,0.079,258.4
2020-02-24T00:28:03,42.805,6.029,-0.12,0.002,-0.032,109.0,108.0,106.0,13.4,1505.3,328.4,-0.7,1.9,2470.159,13.32,0.12,271.0
2020-02-24T00:31:03,42.805,6.029,-0.095,-0.016,-0.032,108.0,109.0,105.0,13.4,1505.3,326.3,-0.7,1.9,2470.138,13.32,0.096,260.4
2020-02-24T00:34:03,42.805,6.029,-0.071,-0.015,-0.036,109.0,108.0,105.0,13.4,1505.3,323.5,-0.7,1.8,2470.09,13.32,0.072,258.1
2020-02-24T00:37:03,42.805,6.029,-0.082,-0.021,-0.049,108.0,109.0,104.0,13.3,1505.3,327.1,-0.7,1.9,2470.105,13.32,0.084,255.6
2020-02-24T00:40:03,42.805,6.029,-0.063,-0.008,-0.027,108.0,108.0,105.0,13.4,1505.3,325.2,-0.7,1.9,2470.128,13.32,0.063,262.8
2020-02-24T00:43:03,42.805,6.029,-0.084,0.011,-0.036,109.0,107.0,105.0,13.4,1505.3,327.9,-0.7,1.8,2470.121,13.32,0.084,277.5
2020-02-24T00:46:03,42.805,6.029,-0.091,-0.014,-0.019,108.0,109.0,105.0,13.3,1505.3,327.1,-0.7,1.8,2470.092,13.32,0.092,261.3
2020-02-24T00:49:03,42.805,6.029,-0.065,0.0,-0.018,108.0,108.0,105.0,13.4,1505.3,326.5,-0.7,1.9,2470.115,13.32,0.064,270.0
2020-02-24T00:52:03,42.805,6.029,-0.098,0.002,-0.057,108.0,109.0,104.0,13.4,1505.3,325.5,-0.7,1.8,2470.114,13.32,0.098,271.2
2020-02-24T00:55:03,42.805,6.029,-0.098,-0.027,-0.043,107.0,108.0,106.0,13.4,1505.3,324.0,-0.7,1.8,2470.134,13.32,0.101,254.6
2020-02-24T00:58:03,42.805,6.029,-0.111,-0.016,-0.011,108.0,107.0,105.0,13.4,1505.3,327.4,-0.7,1.8,2470.076,13.32,0.112,261.8
2020-02-24T01:04:03,42.805,6.029,-0.091,-0.004,-0.012,109.0,109.0,104.0,13.4,1505.2,325.3,-0.7,1.8,2470.138,13.3,0.091,267.5
2020-02-24T01:07:03,42.805,6.029,-0.106,0.018,-0.049,109.0,108.0,105.0,13.4,1505.3,324.4,-0.7,1.8,2470.097,13.31,0.107,279.6
2020-02-24T01:10:03,42.805,6.029,-0.113,-0.015,-0.029,108.0,107.0,104.0,13.4,1505.3,324.8,-0.7,1.8,2470.114,13.31,0.113,262.4
2020-02-24T01:13:03,42.805,6.029,-0.101,0.001,-0.013,108.0,108.0,105.0,13.4,1505.3,326.7,-0.7,1.9,2470.11,13.32,0.101,270.6
2020-02-24T01:16:03,42.805,6.029,-0.098,0.0,-0.059,108.0,106.0,105.0,13.3,1505.3,325.4,-0.7,1.8,2470.088,13.32,0.098,270.0
2020-02-24T01:19:03,42.805,6.029,-0.097,0.002,-0.035,108.0,109.0,104.0,13.4,1505.3,324.9,-0.7,1.9,2470.124,13.32,0.097,271.2
2020-02-24T01:22:03,42.805,6.029,-0.106,0.007,-0.033,108.0,107.0,103.0,13.4,1505.3,324.5,-0.7,1.8,2470.096,13.32,0.106,273.8
2020-02-24T01:25:03,42.805,6.029,-0.068,-0.002,-0.036,108.0,107.0,105.0,13.4,1505.3,323.4,-0.8,1.8,2470.065,13.32,0.068,268.3
2020-02-24T01:28:03,42.805,6.029,-0.107,0.003,-0.027,107.0,108.0,105.0,13.4,1505.3,323.5,-0.7,1.8,2470.098,13.32,0.107,271.6
2020-02-24T01:31:03,42.805,6.029,-0.109,0.021,-0.002,109.0,107.0,105.0,13.4,1505.3,328.4,-0.8,1.8,2470.076,13.32,0.111,280.9
2020-02-24T01:34:03,42.805,6.029,-0.103,-0.012,-0.028,109.0,108.0,104.0,13.3,1505.3,324.4,-0.7,1.8,2470.134,13.32,0.103,263.4
2020-02-24T01:37:03,42.805,6.029,-0.087,-0.002,-0.018,108.0,109.0,106.0,13.3,1505.3,323.5,-0.7,1.8,2470.088,13.32,0.087,268.7
2020-02-24T01:40:03,42.805,6.029,-0.086,0.004,-0.042,109.0,109.0,105.0,13.3,1505.3,327.8,-0.7,1.8,2470.062,13.32,0.086,272.7
2020-02-24T01:43:03,42.805,6.029,-0.091,0.016,-0.005,108.0,107.0,105.0,13.4,1505.3,326.6,-0.7,1.8,2470.081,13.32,0.092,280.0
2020-02-24T01:46:03,42.805,6.029,-0.12,0.012,-0.041,107.0,108.0,105.0,13.4,1505.3,326.2,-0.7,1.8,2470.086,13.32,0.12,275.7
2020-02-24T01:49:03,42.805,6.029,-0.073,0.008,-0.01,109.0,109.0,105.0,13.4,1505.3,325.1,-0.7,1.8,2470.064,13.32,0.073,276.3
2020-02-24T01:52:03,42.805,6.029,-0.096,-0.001,-0.044,108.0,107.0,105.0,13.3,1505.3,323.7,-0.7,1.8,2470.111,13.32,0.096,269.4
2020-02-24T01:55:03,42.805,6.029,-0.092,0.009,-0.022,108.0,108.0,105.0,13.3,1505.3,324.9,-0.7,1.9,2470.066,13.32,0.092,275.6
2020-02-24T01:58:03,42.805,6.029,-0.101,0.019,-0.047,108.0,108.0,105.0,13.3,1505.3,322.9,-0.7,1.8,2470.117,13.32,0.102,280.7
2020-02-24T02:04:03,42.805,6.029,-0.092,0.002,-0.009,108.0,108.0,105.0,13.4,1505.2,324.7,-0.7,1.8,2470.148,13.3,0.092,271.2
2020-02-24T02:07:03,42.805,6.029,-0.105,0.035,-0.05,108.0,108.0,104.0,13.4,1505.3,325.7,-0.7,1.8,2470.099,13.31,0.11,288.4
2020-02-24T02:10:03,42.805,6.029,-0.118,0.013,-0.003,108.0,107.0,105.0,13.4,1505.3,327.2,-0.7,1.8,2470.101,13.31,0.118,276.3
2020-02-24T02:13:03,42.805,6.029,-0.095,-0.025,-0.032,108.0,108.0,104.0,13.4,1505.3,323.1,-0.7,1.9,2470.101,13.32,0.098,255.3
2020-02-24T02:16:03,42.805,6.029,-0.102,0.01,-0.04,107.0,108.0,105.0,13.4,1505.3,326.2,-0.7,1.8,2470.145,13.32,0.102,275.6
2020-02-24T02:19:03,42.805,6.029,-0.093,0.004,-0.021,108.0,107.0,105.0,13.3,1505.3,325.0,-0.7,1.8,2470.08,13.32,0.093,272.5
2020-02-24T02:22:03,42.805,6.029,-0.086,0.002,-0.024,109.0,109.0,105.0,13.4,1505.3,324.0,-0.7,1.8,2470.083,13.32,0.086,271.3
2020-02-24T02:25:03,42.805,6.029,-0.09,-0.013,-0.035,108.0,107.0,105.0,13.3,1505.3,326.6,-0.7,1.8,2470.124,13.32,0.09,261.8
2020-02-24T02:28:03,42.805,6.029,-0.099,0.015,-0.031,107.0,108.0,104.0,13.4,1505.3,324.8,-0.7,1.8,2470.151,13.32,0.1,278.6
2020-02-24T02:31:03,42.805,6.029,-0.095,0.002,-0.019,107.0,108.0,105.0,13.4,1505.3,323.7,-0.7,1.8,2470.107,13.32,0.095,271.2
2020-02-24T02:34:03,42.805,6.029,-0.061,-0.008,-0.048,110.0,109.0,105.0,13.4,1505.3,327.5,-0.7,1.8,2470.08,13.32,0.061,262.5
2020-02-24T02:37:03,42.805,6.029,-0.114,-0.007,-0.028,109.0,108.0,106.0,13.4,1505.3,326.1,-0.7,1.8,2470.121,13.32,0.114,266.5
2020-02-24T02:40:03,42.805,6.029,-0.106,0.002,-0.029,108.0,108.0,104.0,13.4,1505.3,326.3,-0.7,1.8,2470.071,13.32,0.106,271.1
2020-02-24T02:43:03,42.805,6.029,-0.116,-0.01,-0.059,108.0,108.0,105.0,13.3,1505.3,327.0,-0.7,1.8,2470.093,13.32,0.116,265.1
2020-02-24T02:46:03,42.805,6.029,-0.085,0.013,-0.038,108.0,107.0,105.0,13.4,1505.3,328.5,-0.7,1.8,2470.087,13.32,0.085,278.7
2020-02-24T02:49:03,42.805,6.029,-0.075,0.009,-0.019,108.0,108.0,105.0,13.4,1505.3,324.9,-0.7,1.8,2470.086,13.32,0.075,276.8
2020-02-24T02:52:03,42.805,6.029,-0.102,-0.005,-0.028,108.0,109.0,104.0,13.4,1505.3,328.1,-0.7,1.8,2470.11,13.32,0.102,267.2
2020-02-24T02:55:03,42.805,6.029,-0.089,0.005,-0.031,109.0,109.0,106.0,13.4,1505.3,325.9,-0.7,1.8,2470.117,13.32,0.089,273.2
2020-02-24T02:58:03,42.805,6.029,-0.096,0.017,-0.01,109.0,108.0,105.0,13.4,1505.3,323.1,-0.7,1.8,2470.067,13.32,0.097,280.0
2020-02-24T03:04:03,42.805,6.029,-0.094,0.006,-0.016,108.0,107.0,105.0,13.3,1505.2,326.5,-0.7,1.8,2470.132,13.3,0.094,273.6
2020-02-24T03:07:03,42.805,6.029,-0.096,-0.003,-0.04,109.0,108.0,105.0,13.3,1505.3,327.0,-0.7,1.9,2470.096,13.31,0.096,268.2
2020-02-24T03:10:03,42.805,6.029,-0.084,-0.02,-0.021,108.0,107.0,105.0,13.3,1505.3,325.6,-0.7,1.9,2470.137,13.31,0.086,256.6
2020-02-24T03:13:03,42.805,6.029,-0.085,0.0,-0.022,108.0,108.0,105.0,13.4,1505.3,327.0,-0.7,1.8,2470.068,13.32,0.084,270.0
2020-02-24T03:16:03,42.805,6.029,-0.071,0.017,-0.02,108.0,108.0,104.0,13.4,1505.3,327.2,-0.8,1.8,2470.11,13.32,0.073,283.5
2020-02-24T03:19:03,42.805,6.029,-0.111,0.012,-0.026,108.0,107.0,103.0,13.4,1505.3,324.3,-0.7,1.8,2470.128,13.32,0.111,276.2
2020-02-24T03:22:03,42.805,6.029,-0.083,-0.006,0.021,107.0,107.0,105.0,13.3,1505.3,326.0,-0.7,1.9,2470.112,13.32,0.083,265.9
2020-02-24T03:25:03,42.805,6.029,-0.103,0.004,-0.037,108.0,107.0,105.0,13.4,1505.3,323.1,-0.7,1.8,2470.096,13.32,0.103,272.2
2020-02-24T03:28:03,42.805,6.029,-0.1,-0.002,-0.042,109.0,108.0,104.0,13.4,1505.3,325.0,-0.7,1.9,2470.126,13.32,0.1,268.9
2020-02-24T03:31:03,42.805,6.029,-0.116,-0.024,-0.02,108.0,107.0,105.0,13.4,1505.3,323.4,-0.7,1.8,2470.113,13.32,0.118,258.3
2020-02-24T03:34:03,42.805,6.029,-0.134,-0.008,-0.031,108.0,107.0,104.0,13.4,1505.3,326.4,-0.7,1.8,2470.144,13.32,0.134,266.6
2020-02-24T03:37:03,42.805,6.029,-0.103,-0.005,-0.063,109.0,107.0,105.0,13.4,1505.3,326.8,-0.7,1.8,2470.116,13.32,0.103,267.2
2020-02-24T03:40:03,42.805,6.029,-0.096,-0.012,-0.056,108.0,107.0,104.0,13.4,1505.3,324.6,-0.7,1.8,2470.118,13.32,0.096,262.9
2020-02-24T03:43:03,42.805,6.029,-0.104,-0.005,-0.026,107.0,107.0,104.0,13.3,1505.3,325.1,-0.7,1.8,2470.122,13.32,0.104,267.2
2020-02-24T03:46:03,42.805,6.029,-0.117,0.021,-0.014,108.0,107.0,105.0,13.4,1505.3,328.1,-0.7,1.8,2470.135,13.32,0.118,280.2
2020-02-24T03:49:03,42.805,6.029,-0.101,0.019,-0.038,108.0,107.0,105.0,13.3,1505.3,327.1,-0.7,1.8,2470.141,13.32,0.102,280.7
2020-02-24T03:52:03,42.805,6.029,-0.096,0.002,-0.026,108.0,108.0,104.0,13.3,1505.3,326.2,-0.7,1.8,2470.143,13.32,0.096,271.2
2020-02-24T03:55:03,42.805,6.029,-0.111,0.005,-0.037,108.0,108.0,104.0,13.4,1505.3,325.4,-0.7,1.9,2470.131,13.32,0.111,272.6
2020-02-24T03:58:03,42.805,6.029,-0.1,0.02,0.007,107.0,107.0,105.0,13.4,1505.3,328.4,-0.7,1.8,2470.138,13.32,0.101,281.3
2020-02-24T04:04:03,42.805,6.029,-0.097,0.015,-0.034,108.0,108.0,104.0,13.4,1505.2,325.8,-0.7,1.8,2470.178,13.3,0.098,278.8
2020-02-24T04:07:03,42.805,6.029,-0.055,-0.003,-0.022,108.0,107.0,104.0,13.4,1505.3,324.0,-0.7,1.8,2470.183,13.31,0.055,266.9
2020-02-24T04:10:03,42.805,6.029,-0.081,-0.005,-0.04,109.0,107.0,105.0,13.4,1505.3,324.8,-0.7,1.8,2470.183,13.31,0.081,266.5
2020-02-24T04:13:03,42.805,6.029,-0.111,0.011,-0.027,107.0,107.0,104.0,13.4,1505.3,324.1,-0.7,1.8,2470.134,13.32,0.111,275.7
2020-02-24T04:16:03,42.805,6.029,-0.102,0.014,-0.028,108.0,108.0,104.0,13.3,1505.3,324.3,-0.7,1.8,2470.153,13.32,0.102,277.8
2020-02-24T04:19:03,42.805,6.029,-0.099,-0.011,-0.004,108.0,108.0,104.0,13.4,1505.3,323.0,-0.7,1.8,2470.168,13.32,0.099,263.7
2020-02-24T04:22:03,42.805,6.029,-0.112,0.008,-0.023,108.0,107.0,105.0,13.4,1505.3,322.9,-0.7,1.8,2470.215,13.32,0.112,274.1
2020-02-24T04:25:03,42.805,6.029,-0.106,-0.001,-0.013,107.0,107.0,105.0,13.4,1505.3,326.7,-0.7,1.9,2470.146,13.32,0.106,269.5
2020-02-24T04:28:03,42.805,6.029,-0.09,0.004,-0.029,108.0,107.0,106.0,13.4,1505.3,325.3,-0.7,1.8,2470.161,13.32,0.09,272.5
2020-02-24T04:31:03,42.805,6.029,-0.084,-0.02,-0.034,108.0,109.0,105.0,13.4,1505.3,324.0,-0.7,1.8,2470.198,13.32,0.086,256.6
2020-02-24T04:34:03,42.805,6.029,-0.095,0.015,-0.041,108.0,110.0,104.0,13.4,1505.3,326.0,-0.7,1.8,2470.166,13.32,0.096,279.0
2020-02-24T04:37:03,42.805,6.029,-0.09,0.014,-0.002,108.0,108.0,104.0,13.4,1505.3,323.8,-0.7,1.8,2470.229,13.32,0.091,278.8
2020-02-24T04:40:03,42.805,6.029,-0.081,-0.001,-0.017,109.0,108.0,105.0,13.3,1505.3,327.1,-0.7,1.9,2470.183,13.32,0.081,269.3
2020-02-24T04:43:03,42.805,6.029,-0.072,0.0,-0.007,107.0,107.0,104.0,13.4,1505.3,327.2,-0.7,1.9,2470.204,13.32,0.071,270.0
2020-02-24T04:46:03,42.805,6.029,-0.092,0.017,-0.028,109.0,107.0,105.0,13.4,1505.3,323.1,-0.7,1.8,2470.164,13.32,0.093,280.5
2020-02-24T04:49:03,42.805,6.029,-0.11,0.0,-0.013,108.0,107.0,104.0,13.4,1505.3,328.1,-0.7,1.8,2470.206,13.32,0.11,270.0
2020-02-24T04:52:03,42.805,6.029,-0.119,-0.014,0.002,108.0,107.0,104.0,13.4,1505.3,326.3,-0.7,1.8,2470.199,13.32,0.119,263.3
2020-02-24T04:55:03,42.805,6.029,-0.089,0.007,-0.01,109.0,107.0,104.0,13.3,1505.3,325.4,-0.7,1.8,2470.181,13.32,0.089,274.5
2020-02-24T04:58:03,42.805,6.029,-0.084,-0.01,-0.02,108.0,107.0,105.0,13.4,1505.3,323.0,-0.7,1.8,2470.185,13.32,0.084,263.2
2020-02-24T05:04:03,42.805,6.029,-0.105,-0.003,-0.019,108.0,107.0,104.0,13.4,1505.2,326.3,-0.7,1.8,2470.234,13.3,0.105,268.4
2020-02-24T05:07:03,42.805,6.029,-0.123,0.005,-0.047,107.0,106.0,105.0,13.4,1505.3,323.8,-0.7,1.8,2470.212,13.31,0.123,272.3
2020-02-24T05:10:03,42.805,6.029,-0.102,0.018,-0.007,107.0,108.0,104.0,13.3,1505.3,327.9,-0.7,1.8,2470.203,13.31,0.103,280.0
2020-02-24T05:13:03,42.805,6.029,-0.104,0.004,-0.022,108.0,107.0,104.0,13.4,1505.3,326.0,-0.7,1.8,2470.196,13.32,0.104,272.2
2020-02-24T05:16:03,42.805,6.029,-0.105,0.004,-0.03,108.0,108.0,104.0,13.4,1505.3,324.6,-0.7,1.8,2470.233,13.32,0.105,272.2
2020-02-24T05:19:03,42.805,6.029,-0.08,0.002,-0.025,108.0,107.0,104.0,13.4,1505.3,324.0,-0.7,1.9,2470.242,13.32,0.08,271.4
2020-02-24T05:22:03,42.805,6.029,-0.091,-0.009,-0.041,107.0,108.0,105.0,13.4,1505.3,324.0,-0.7,1.8,2470.214,13.32,0.091,264.4
2020-02-24T05:25:03,42.805,6.029,-0.091,-0.008,-0.012,108.0,108.0,104.0,13.3,1505.3,327.2,-0.7,1.8,2470.244,13.32,0.091,265.0
2020-02-24T05:28:03,42.805,6.029,-0.103,-0.005,-0.018,108.0,107.0,105.0,13.4,1505.3,327.4,-0.7,1.8,2470.215,13.32,0.103,267.2
2020-02-24T05:31:03,42.805,6.029,-0.073,-0.005,-0.04,108.0,107.0,104.0,13.4,1505.3,324.7,-0.7,1.8,2470.228,13.32,0.073,266.1
2020-02-24T05:34:03,42.805,6.029,-0.062,-0.013,-0.032,109.0,108.0,104.0,13.3,1505.3,326.1,-0.7,1.8,2470.253,13.32,0.063,258.2
2020-02-24T05:37:03,42.805,6.029,-0.11,-0.004,-0.02,108.0,106.0,105.0,13.4,1505.3,326.2,-0.7,1.9,2470.207,13.32,0.11,267.9
2020-02-24T05:40:03,42.805,6.029,-0.108,-0.01,-0.03,108.0,107.0,103.0,13.3,1505.3,326.3,-0.7,1.8,2470.256,13.32,0.108,264.7
2020-02-24T05:43:03,42.805,6.029,-0.089,-0.032,-0.029,107.0,108.0,104.0,13.4,1505.3,325.9,-0.7,1.8,2470.241,13.32,0.094,250.2
2020-02-24T05:46:03,42.805,6.029,-0.127,-0.008,-0.012,109.0,108.0,103.0,13.4,1505.3,322.9,-0.7,1.8,2470.236,13.32,0.127,266.4
2020-02-24T05:49:03,42.805,6.029,-0.106,0.003,-0.048,108.0,107.0,104.0,13.4,1505.3,327.8,-0.7,1.9,2470.282,13.32,0.106,271.6
2020-02-24T05:52:03,42.805,6.029,-0.089,0.006,-0.013,107.0,107.0,104.0,13.4,1505.3,325.7,-0.7,1.8,2470.272,13.32,0.089,273.9
2020-02-24T05:55:03,42.805,6.029,-0.092,-0.005,-0.03,108.0,108.0,104.0,13.4,1505.3,323.9,-0.7,1.9,2470.252,13.32,0.092,266.9
2020-02-24T05:58:03,42.805,6.029,-0.074,-0.023,-0.005,108.0,107.0,105.0,13.4,1505.3,324.2,-0.7,1.8,2470.271,13.32,0.077,252.7
2020-02-24T06:04:03,42.805,6.029,-0.067,-0.023,-0.008,109.0,107.0,104.0,13.3,1505.2,327.8,-0.8,1.8,2470.273,13.3,0.07,251.1
2020-02-24T06:07:03,42.805,6.029,-0.102,-0.025,-0.03,107.0,107.0,104.0,13.3,1505.3,325.4,-0.7,1.8,2470.335,13.31,0.105,256.2
2020-02-24T06:10:03,42.805,6.029,-0.086,-0.01,-0.056,108.0,107.0,104.0,13.3,1505.3,326.9,-0.7,1.8,2470.304,13.31,0.086,263.4
2020-02-24T06:16:03,42.805,6.029,-0.099,0.0,-0.051,107.0,107.0,105.0,13.3,1505.2,325.4,-0.7,1.8,2470.342,13.3,0.099,270.0
2020-02-24T06:19:03,42.805,6.029,-0.095,-0.016,0.0,108.0,106.0,104.0,13.4,1505.3,323.4,-0.7,1.9,2470.343,13.31,0.096,260.4
2020-02-24T06:22:03,42.805,6.029,-0.098,-0.009,-0.044,106.0,107.0,105.0,13.3,1505.3,327.7,-0.7,1.8,2470.304,13.31,0.098,264.8
2020-02-24T06:25:03,42.805,6.029,-0.099,-0.01,-0.002,108.0,107.0,104.0,13.4,1505.3,325.0,-0.7,1.8,2470.326,13.31,0.099,264.2
2020-02-24T06:28:03,42.805,6.029,-0.075,-0.009,-0.018,107.0,107.0,105.0,13.3,1505.3,327.2,-0.7,1.8,2470.329,13.32,0.075,263.2
2020-02-24T06:31:03,42.805,6.029,-0.076,-0.006,-0.035,108.0,108.0,105.0,13.4,1505.3,323.2,-0.7,1.9,2470.344,13.32,0.076,265.5
2020-02-24T06:34:03,42.805,6.029,-0.095,-0.007,-0.036,108.0,107.0,104.0,13.4,1505.3,324.8,-0.7,1.8,2470.333,13.32,0.095,265.8
2020-02-24T06:37:03,42.805,6.029,-0.103,-0.027,-0.013,107.0,107.0,105.0,13.3,1505.3,327.6,-0.7,1.8,2470.26,13.32,0.106,255.3
2020-02-24T06:40:03,42.805,6.029,-0.102,-0.003,-0.036,107.0,107.0,104.0,13.4,1505.3,326.4,-0.7,1.8,2470.324,13.32,0.102,268.3
2020-02-24T06:43:03,42.805,6.029,-0.123,-0.015,-0.042,107.0,106.0,103.0,13.3,1505.3,328.2,-0.7,1.8,2470.312,13.32,0.123,263.0
2020-02-24T06:46:03,42.805,6.029,-0.1,-0.002,-0.032,107.0,107.0,104.0,13.4,1505.3,327.2,-0.7,1.8,2470.295,13.32,0.1,268.9
2020-02-24T06:49:03,42.805,6.029,-0.082,0.012,-0.033,108.0,107.0,104.0,13.4,1505.3,325.5,-0.7,1.8,2470.377,13.32,0.082,278.3
2020-02-24T06:55:03,42.805,6.029,-0.047,-0.006,-0.059,107.0,106.0,104.0,13.3,1505.2,323.2,-0.7,1.8,2470.347,13.3,0.047,262.7
2020-02-24T06:58:03,42.805,6.029,-0.129,-0.012,-0.048,106.0,106.0,104.0,13.3,1505.3,326.0,-0.7,1.8,2470.317,13.31,0.129,264.7
2020-02-24T07:04:03,42.805,6.029,-0.09,-0.004,-0.034,107.0,106.0,105.0,13.4,1505.2,324.7,-0.8,1.8,2470.381,13.3,0.09,267.5
2020-02-24T07:07:03,42.805,6.029,-0.093,-0.008,-0.045,107.0,107.0,104.0,13.4,1505.3,325.1,-0.7,1.8,2470.368,13.31,0.093,265.1
2020-02-24T07:10:03,42.805,6.029,-0.09,-0.001,-0.015,107.0,107.0,104.0,13.4,1505.3,323.0,-0.7,1.8,2470.345,13.31,0.089,269.4
2020-02-24T07:13:03,42.805,6.029,-0.096,-0.008,-0.015,107.0,106.0,103.0,13.4,1505.3,326.4,-0.7,1.8,2470.325,13.31,0.096,265.2
2020-02-24T07:16:03,42.805,6.029,-0.118,0.011,-0.049,107.0,106.0,104.0,13.4,1505.3,327.2,-0.7,1.9,2470.329,13.32,0.118,275.3
2020-02-24T07:19:03,42.805,6.029,-0.077,-0.033,-0.039,106.0,107.0,104.0,13.4,1505.3,324.7,-0.7,1.8,2470.35,13.32,0.083,246.8
2020-02-24T07:22:03,42.805,6.029,-0.115,-0.025,-0.013,108.0,107.0,104.0,13.4,1505.3,322.8,-0.7,1.8,2470.352,13.32,0.117,257.7
2020-02-24T07:25:03,42.805,6.029,-0.102,0.005,-0.027,109.0,107.0,104.0,13.4,1505.3,323.0,-0.7,1.8,2470.338,13.32,0.102,272.8
2020-02-24T07:28:03,42.805,6.029,-0.099,0.005,-0.025,107.0,106.0,104.0,13.3,1505.3,328.1,-0.7,1.8,2470.35,13.32,0.099,272.9
2020-02-24T07:31:03,42.805,6.029,-0.085,-0.004,-0.018,108.0,107.0,104.0,13.4,1505.3,326.2,-0.7,1.8,2470.363,13.32,0.085,267.3
2020-02-24T07:34:03,42.805,6.029,-0.087,-0.023,-0.029,107.0,107.0,105.0,13.4,1505.3,323.7,-0.7,1.8,2470.363,13.32,0.089,255.2
2020-02-24T07:37:03,42.805,6.029,-0.098,-0.026,-0.035,107.0,107.0,104.0,13.4,1505.3,327.7,-0.7,1.8,2470.343,13.32,0.101,255.1
2020-02-24T07:40:03,42.805,6.029,-0.081,-0.029,-0.061,106.0,108.0,104.0,13.4,1505.3,327.1,-0.7,1.8,2470.407,13.32,0.086,250.3
2020-02-24T07:43:03,42.805,6.029,-0.078,-0.016,-0.026,107.0,107.0,104.0,13.4,1505.3,323.5,-0.7,1.8,2470.342,13.32,0.079,258.4
2020-02-24T07:46:03,42.805,6.029,-0.079,0.005,-0.069,108.0,107.0,104.0,13.4,1505.3,327.4,-0.7,1.8,2470.352,13.32,0.079,273.6
2020-02-24T07:49:03,42.805,6.029,-0.073,0.005,-0.024,107.0,106.0,104.0,13.4,1505.3,326.9,-0.7,1.8,2470.33,13.32,0.073,273.9
2020-02-24T07:52:03,42.805,6.029,-0.052,-0.032,-0.013,108.0,106.0,104.0,13.4,1505.3,324.5,-0.7,1.8,2470.351,13.32,0.061,238.4
2020-02-24T07:55:03,42.805,6.029,-0.093,-0.027,-0.03,108.0,106.0,104.0,13.4,1505.3,324.0,-0.7,1.8,2470.317,13.32,0.096,253.8
2020-02-24T07:58:03,42.805,6.029,-0.081,-0.017,-0.039,107.0,107.0,103.0,13.4,1505.3,323.3,-0.7,1.9,2470.301,13.32,0.082,258.1
2020-02-24T08:01:03,42.805,6.029,-0.104,-0.016,-0.027,108.0,106.0,104.0,13.4,1505.3,327.4,-0.7,1.8,2470.318,13.32,0.105,261.3
2020-02-24T08:04:03,42.805,6.029,-0.109,-0.02,-0.025,107.0,107.0,104.0,13.4,1505.3,327.5,-0.7,1.8,2470.351,13.32,0.11,259.6
2020-02-24T08:07:03,42.805,6.029,-0.094,-0.039,-0.022,107.0,107.0,103.0,13.4,1505.3,328.1,-0.7,1.8,2470.328,13.32,0.101,247.5
2020-02-24T08:10:03,42.805,6.029,-0.097,-0.021,-0.031,108.0,106.0,104.0,13.3,1505.3,327.9,-0.7,1.8,2470.326,13.32,0.099,257.8
2020-02-24T08:13:03,42.805,6.029,-0.071,-0.023,-0.037,107.0,107.0,105.0,13.4,1505.3,324.4,-0.7,1.8,2470.327,13.32,0.074,252.1
2020-02-24T08:16:03,42.805,6.029,-0.074,-0.015,-0.051,107.0,107.0,104.0,13.4,1505.3,324.9,-0.7,1.8,2470.334,13.32,0.075,258.5
2020-02-24T08:19:03,42.805,6.029,-0.088,-0.011,-0.036,106.0,107.0,104.0,13.4,1505.3,324.8,-0.7,1.8,2470.386,13.32,0.088,262.9
2020-02-24T08:22:03,42.805,6.029,-0.087,-0.017,-0.014,108.0,106.0,104.0,13.3,1505.3,326.5,-0.7,1.8,2470.317,13.32,0.088,258.9
2020-02-24T08:25:03,42.805,6.029,-0.083,-0.001,-0.033,107.0,107.0,104.0,13.4,1505.3,326.4,-0.7,1.8,2470.346,13.32,0.083,269.3
2020-02-24T08:28:03,42.805,6.029,-0.095,-0.017,-0.038,107.0,107.0,104.0,13.4,1505.3,324.6,-0.7,1.8,2470.333,13.32,0.096,259.9
2020-02-24T08:31:03,42.805,6.029,-0.076,-0.034,-0.033,107.0,107.0,104.0,13.4,1505.3,323.6,-0.7,1.8,2470.312,13.32,0.083,245.9
2020-02-24T08:34:03,42.805,6.029,-0.078,-0.026,-0.053,107.0,109.0,103.0,13.4,1505.3,327.9,-0.8,1.9,2470.351,13.32,0.082,251.6
2020-02-24T08:37:03,42.805,6.029,-0.089,-0.007,-0.062,108.0,107.0,104.0,13.4,1505.3,324.6,-0.7,1.8,2470.334,13.32,0.089,265.5
2020-02-24T08:40:03,42.805,6.029,-0.066,-0.016,-0.019,108.0,107.0,105.0,13.4,1505.3,324.3,-0.7,1.8,2470.312,13.32,0.067,256.4
2020-02-24T08:43:03,42.805,6.029,-0.105,0.007,-0.059,106.0,106.0,105.0,13.4,1505.3,327.9,-0.7,1.8,2470.313,13.32,0.105,273.8
2020-02-24T08:46:03,42.805,6.029,-0.096,-0.017,-0.018,107.0,107.0,104.0,13.3,1505.3,326.6,-0.7,1.8,2470.362,13.32,0.097,260.0
2020-02-24T08:49:03,42.805,6.029,-0.086,-0.011,-0.04,108.0,108.0,103.0,13.4,1505.3,325.8,-0.7,1.8,2470.36,13.32,0.086,262.7
2020-02-24T08:52:03,42.805,6.029,-0.085,-0.009,-0.027,107.0,108.0,104.0,13.3,1505.3,324.6,-0.7,1.8,2470.337,13.32,0.085,264.0
2020-02-24T08:55:03,42.805,6.029,-0.103,-0.023,-0.05,107.0,107.0,104.0,13.4,1505.3,325.1,-0.7,1.8,2470.356,13.32,0.105,257.4
2020-02-24T08:58:03,42.805,6.029,-0.074,-0.019,-0.038,108.0,108.0,104.0,13.3,1505.3,325.9,-0.7,1.8,2470.34,13.32,0.076,255.6
2020-02-24T09:04:03,42.805,6.029,-0.09,-0.031,-0.018,108.0,107.0,104.0,13.4,1505.2,322.9,-0.7,1.8,2470.387,13.3,0.095,251.0
2020-02-24T09:07:03,42.805,6.029,-0.087,-0.012,-0.046,106.0,106.0,104.0,13.4,1505.3,325.3,-0.7,1.8,2470.398,13.31,0.087,262.2
2020-02-24T09:10:03,42.805,6.029,-0.085,-0.023,-0.012,106.0,107.0,104.0,13.4,1505.3,326.1,-0.7,1.8,2470.344,13.31,0.088,254.9
2020-02-24T09:13:03,42.805,6.029,-0.059,-0.032,-0.018,107.0,107.0,105.0,13.4,1505.3,326.0,-0.7,1.9,2470.308,13.31,0.067,241.5
2020-02-24T09:16:03,42.805,6.029,-0.091,-0.016,-0.059,108.0,106.0,103.0,13.3,1505.3,324.0,-0.7,1.8,2470.369,13.32,0.092,260.0
2020-02-24T09:19:03,42.805,6.029,-0.052,-0.029,-0.025,108.0,106.0,105.0,13.3,1505.3,325.7,-0.7,1.8,2470.339,13.32,0.059,240.9
2020-02-24T09:22:03,42.805,6.029,-0.071,-0.032,-0.037,108.0,108.0,103.0,13.3,1505.3,326.9,-0.7,1.9,2470.343,13.32,0.077,245.7
2020-02-24T09:25:03,42.805,6.029,-0.063,-0.02,-0.03,107.0,106.0,103.0,13.4,1505.3,326.1,-0.7,1.8,2470.316,13.32,0.066,252.4
2020-02-24T09:28:03,42.805,6.029,-0.082,-0.031,-0.025,108.0,106.0,103.0,13.4,1505.3,324.8,-0.7,1.8,2470.321,13.32,0.087,249.3
2020-02-24T09:31:03,42.805,6.029,-0.067,-0.039,-0.019,107.0,108.0,104.0,13.4,1505.3,325.2,-0.7,1.8,2470.339,13.32,0.077,239.8
2020-02-24T09:34:03,42.805,6.029,-0.088,-0.026,-0.035,108.0,106.0,105.0,13.4,1505.3,323.9,-0.7,1.8,2470.337,13.32,0.091,253.5
2020-02-24T09:37:03,42.805,6.029,-0.056,-0.024,-0.043,106.0,105.0,104.0,13.4,1505.3,324.8,-0.7,1.8,2470.357,13.32,0.06,246.8
2020-02-24T09:40:03,42.805,6.029,-0.1,-0.051,-0.064,106.0,107.0,104.0,13.4,1505.3,323.2,-0.7,1.9,2470.32,13.32,0.112,243.0
2020-02-24T09:43:03,42.805,6.029,-0.072,-0.019,-0.027,108.0,107.0,104.0,13.4,1505.3,324.4,-0.7,1.8,2470.339,13.32,0.074,255.2
2020-02-24T09:46:03,42.805,6.029,-0.104,-0.008,-0.041,108.0,106.0,104.0,13.4,1505.3,327.6,-0.7,1.8,2470.285,13.32,0.104,265.6
2020-02-24T09:49:03,42.805,6.029,-0.091,-0.017,-0.044,108.0,107.0,103.0,13.4,1505.3,326.0,-0.7,1.8,2470.363,13.32,0.092,259.4
2020-02-24T09:52:03,42.805,6.029,-0.09,-0.032,-0.039,107.0,108.0,105.0,13.4,1505.3,328.1,-0.7,1.8,2470.34,13.32,0.095,250.4